Location: Ar Serrou
(48.3622°N, 4.9509°W)
Time: 12:45:16
(UTC+00:00)

Daily predictions for brighter satellites

Satellite Brightness Start Highest point End
(mag) Time Altitude Azimuth Time Altitude Azimuth Time Altitude Azimuth
NOSS 3-4 (A) 4.3 20:29:13 10° WSW 20:35:00 56° NW 20:41:18 10° NE
NOSS 3-4 (C) 4.3 20:29:19 10° WSW 20:35:05 56° NW 20:41:24 10° NE
BREEZE-M DEB (TANK) 2.0 20:33:19 10° WNW 20:35:54 77° SSW 20:41:40 10° ESE
Helios 1A Rocket 4.1 20:32:22 10° S 20:36:14 44° W 20:40:10 10° NNW
SPOT 1/Viking Rocket 4.1 20:32:26 10° SE 20:37:19 43° ENE 20:42:16 10° N
Cosmos 1697 Rocket 3.7 20:32:59 10° NW 20:38:22 45° WSW 20:43:42 10° S
Cosmos 1076 Rocket 3.7 20:34:15 10° S 20:38:28 53° E 20:42:44 10° NNE
SAR-Lupe-1 4.5 20:35:44 10° N 20:39:18 69° WNW 20:42:51 10° SSW
ATLAS 5 CENTAUR R/B 4.4 20:36:31 10° NNW 20:39:36 16° NNE 20:42:57 10° NE
SAR-Lupe-4 3.8 20:36:53 10° N 20:40:30 76° WNW 20:44:03 10° SSW
OBJECT-B 3.1 20:38:55 10° SSW 20:41:36 24° W 20:44:18 10° NW
ATLAS 2AS CENTAUR R/B 3.2 20:35:46 10° SW 20:43:43 84° NW 20:51:28 10° NE
Cosmos 773 Rocket 4.1 20:41:39 10° SSW 20:46:52 83° WNW 20:52:04 10° NNE
Cosmos 1833 Rocket 3.7 20:43:25 10° SW 20:48:55 52° NW 20:54:27 10° NNE
ATLAS 3B R/B 2.9 20:41:53 10° NW 20:48:59 84° SW 20:56:23 10° SE
Terra 3.5 20:48:32 10° ESE 20:51:58 20° ENE 20:55:25 10° NNE
Cosmos 1842 Rocket 4.3 20:47:52 10° NNW 20:52:17 58° W 20:56:40 10° S
SPOT 5 4.0 20:50:57 10° ESE 20:54:29 25° ENE 20:58:05 10° N
Cosmos 2082 Rocket 2.3 20:49:53 10° SSW 20:55:32 85° WNW 21:01:15 10° NNE
Cosmos 1092 Rocket 4.4 20:50:37 10° SSE 20:56:32 47° E 21:02:32 10° NNE
Cosmos 1633 2.6 20:54:10 10° S 20:57:47 86° W 21:01:26 10° N
Cosmos 2278 4.0 20:52:42 10° NNW 20:58:21 71° WSW 21:03:59 10° SSE
BREEZE-M DEB (TANK) 1.7 20:57:46 10° WSW 21:00:58 70° SSE 21:02:49 10° E
Cosmos 332 Rocket 3.9 20:59:30 10° NNW 21:04:24 72° ENE 21:08:58 12° SSE
ERS-1 Rocket 3.8 21:00:35 11° SE 21:04:52 35° ENE 21:09:25 10° N
Cosmos 2360 Rocket 3.5 21:00:18 10° NNW 21:05:12 29° NE 21:10:04 10° ESE
Cosmos 1606 3.7 21:01:53 10° NNW 21:05:32 46° W 21:09:10 10° SSW
Cosmos 158 Rocket 4.1 21:02:16 10° S 21:07:18 58° ESE 21:12:30 10° NNE
Cosmos 2026 Rocket 4.4 21:03:29 10° SSE 21:09:30 47° E 21:15:28 10° NNE
GP-B 3.6 21:08:18 10° NNE 21:12:33 43° E 21:16:13 13° SSE
ISS -3.2 21:10:21 10° WNW 21:13:36 45° SSW 21:15:56 17° SE
Cosmos 2333 Rocket 4.0 21:11:13 10° N 21:15:26 21° NE 21:19:38 10° E
Landsat 7 4.3 21:12:01 10° S 21:16:43 61° W 21:21:27 10° NNW
Nadezhda 4 Rocket 4.1 21:10:49 10° SSW 21:16:59 80° W 21:23:16 10° N
IGS 5A 4.3 21:13:35 10° S 21:17:35 48° W 21:21:37 10° NNW
Meteor 1-26 Rocket 4.4 21:12:42 10° N 21:18:42 69° ENE 21:23:55 13° SSE
Spot 2 Rocket 3.6 21:14:48 13° SSE 21:19:20 65° ENE 21:24:25 10° N
SPOT 3 Rocket 3.9 21:14:57 10° S 21:20:08 67° WSW 21:25:22 10° NNW
Cosmos 1812 4.0 21:17:39 10° NNE 21:20:57 26° ENE 21:23:03 16° ESE
Cosmos 1680 Rocket 4.1 21:17:48 10° SSE 21:22:36 37° ESE 21:27:25 10° NE
CZ-2C R/B 3.6 21:20:17 10° NNE 21:24:49 71° ESE 21:29:16 10° S
Cosmos 1980 Rocket 3.5 21:21:32 10° NW 21:26:37 36° WSW 21:31:42 10° S
MetOp-B 4.4 21:21:56 10° S 21:27:15 68° WSW 21:32:38 10° NNW
RESURS DK-1 4.0 21:24:02 10° WSW 21:27:56 39° NW 21:31:53 10° NNE
Okean 3 Rocket 4.3 21:24:58 16° SSE 21:28:01 37° E 21:32:10 10° NNE
USA 245 3.8 21:25:06 11° SSE 21:29:58 83° WSW 21:34:09 10° NNW
USA 234 4.2 21:25:39 10° E 21:31:50 46° NNE 21:38:01 10° WNW
Cosmos 1933 3.7 21:32:51 10° NNW 21:36:53 64° W 21:40:22 13° S
Cosmos 2322 Rocket 2.3 21:32:09 10° NNW 21:37:48 70° ENE 21:41:46 20° SE
Cosmos 304 Rocket 4.1 21:33:53 10° NNW 21:38:37 62° WSW 21:42:24 16° S
Cosmos 1428 Rocket 4.4 21:32:42 10° S 21:38:49 77° E 21:44:57 10° NNE
ERS-2 4.3 21:36:02 10° N 21:39:12 28° WNW 21:42:21 10° SW
Resurs 01 Rocket 3.3 21:37:32 10° SSW 21:41:28 30° W 21:45:25 10° NNW
Cosmos 2151 3.7 21:38:59 10° SSW 21:43:09 55° WNW 21:47:22 10° N
CARTOSAT-1 3.8 21:46:36 17° S 21:49:51 68° WSW 21:54:11 10° NNW
Cosmos 2084 3.9 21:48:52 22° S 21:50:49 34° ESE 21:54:35 10° ENE
Cosmos 1553 Rocket 4.0 21:45:24 10° N 21:51:27 66° ENE 21:55:36 21° SSE
Gbstr 26 Del rocket 3.0 21:50:02 10° WNW 21:53:41 52° SSW 21:55:26 29° SSE
Meteor 2-3 Rocket 4.0 21:48:29 10° SSW 21:54:08 71° WNW 21:59:53 10° N
Cosmos 1862 3.7 21:57:03 29° SSE 21:58:37 45° E 22:02:25 10° NNE
Cosmos 2219 Rocket 3.5 21:54:13 10° NNW 21:59:10 30° NE 22:02:58 15° ESE
Cosmos 1624 Rocket 4.0 21:54:46 10° NNW 22:00:00 70° ENE 22:02:57 26° SE
Cosmos 1782 3.4 21:59:08 10° NNW 22:03:04 55° W 22:05:38 20° SSW
Cosmos 1515 Rocket 3.9 22:00:29 10° N 22:04:50 51° ENE 22:06:43 30° SE
NOSS 2-1 (E) 3.6 22:05:22 33° ESE 22:05:22 33° ESE 22:08:04 10° NE
H-2A R/B 4.1 22:02:08 10° NNE 22:06:04 37° E 22:07:15 31° SE
SL-16 R/B 2.6 22:00:43 10° NW 22:06:17 59° WSW 22:09:55 22° S
ARIANE 5 R/B 3.1 22:04:24 19° S 22:07:25 55° W 22:11:48 10° NNW
NOSS 3-1 (C) 4.4 22:00:52 10° NW 22:08:01 61° NE 22:14:29 18° ESE
Cosmos 1271 Rocket 4.2 22:05:31 10° NNW 22:09:09 34° W 22:12:03 14° SSW
COSMOS 2455 3.9 22:09:10 23° SE 22:10:20 25° ESE 22:15:07 10° NE
Cosmos 2237 4.2 22:04:47 10° NNW 22:10:32 88° WSW 22:13:45 27° SSE
USA 276 3.0 22:07:44 10° W 22:10:38 33° SSW 22:10:46 33° SSW
Cosmos 1420 Rocket 4.3 22:05:41 10° NNW 22:10:59 60° ENE 22:13:43 28° SE
COSMOS 2428 3.9 22:08:48 10° NNW 22:13:55 33° NE 22:17:35 17° ESE
Meteor 2-6 Rocket 4.1 22:10:25 10° NNW 22:15:52 89° ENE 22:18:52 27° S
Cosmos 1655 Rocket 4.3 22:12:44 25° SSE 22:16:20 54° E 22:22:33 10° NNE
Cosmos 1151 Rocket 3.7 22:13:42 10° NNW 22:17:56 52° W 22:20:30 22° SSW
Cosmos 1766 Rocket 3.8 22:14:49 17° SSW 22:18:07 67° W 22:22:30 10° N
Cosmos 1417 Rocket 4.5 22:12:22 10° N 22:18:45 86° E 22:22:33 26° S
Cosmos 1809 Rocket 4.5 22:14:19 14° SSW 22:19:41 82° W 22:25:52 10° N
S3M 4.0 22:15:22 10° N 22:21:47 76° E 22:25:25 28° SSE
Cosmos 1328 Rocket 3.9 22:18:01 10° NNW 22:22:26 62° W 22:24:43 27° SSW
ATLAS 5 CENTAUR R/B 3.4 22:20:49 10° NNW 22:25:39 35° NE 22:30:39 13° E
Cosmos 1174 3.4 22:23:10 10° NNW 22:26:09 54° NE 22:26:29 50° E
Terra 2.1 22:26:49 27° S 22:29:18 61° W 22:34:02 10° NNW
Cosmos 1452 Rocket 4.1 22:25:23 10° NNW 22:30:27 46° ENE 22:32:49 28° ESE
COSMOS 2487 4.3 22:31:49 18° ENE 22:31:49 18° ENE 22:33:21 10° NE
SPOT 5 3.7 22:30:02 21° SSW 22:32:25 38° W 22:36:32 10° NNW
ALOS 2 4.3 22:33:57 18° E 22:35:32 22° ENE 22:38:52 10° NNE
USA 267 3.4 22:33:15 10° ENE 22:39:35 49° SE 22:45:53 10° SSW
Cosmos 2056 Rocket 3.9 22:34:50 10° NNW 22:40:06 58° WSW 22:42:28 31° S
SL-27 R/B 2.4 22:39:50 47° SSW 22:40:47 83° WNW 22:44:25 10° NNE
Meteor 1-27 Rocket 3.8 22:36:10 10° N 22:41:48 71° ENE 22:44:14 35° SSE
NOSS 3-1 (A) 4.4 22:35:32 10° NW 22:42:43 61° NE 22:48:48 20° ESE
ERS-1 Rocket 4.2 22:40:34 18° SSW 22:43:39 35° W 22:48:14 10° NNW
Meteor 2-21 Rocket 4.5 22:40:58 23° SSW 22:45:02 82° W 22:51:16 10° N
NOSS 2-1 (C) 3.0 22:48:04 35° WSW 22:49:17 70° NW 22:52:41 10° NE
Cosmos 2360 Rocket 2.5 22:44:02 10° NW 22:49:34 59° WSW 22:51:53 34° S
Cosmos 1805 Rocket 4.1 22:49:13 40° ESE 22:49:51 43° E 22:54:03 10° NNE
IRIDIUM 104 4.4 22:45:19 10° N 22:50:32 66° E 22:52:18 41° SSE
Cosmos 1812 4.4 22:53:22 10° NNW 22:56:39 27° W 22:58:07 21° SW
NOSS 2-1 (D) 3.4 22:55:30 28° WSW 22:57:00 58° NW 23:00:24 10° NE
IRIDIUM 114 4.3 22:54:26 10° N 22:59:42 79° E 23:01:25 43° SSE
Cosmos 1833 4.2 22:56:03 23° SSW 22:59:51 88° WNW 23:05:41 10° NNE
Cosmos 2333 Rocket 2.1 22:54:51 10° NNW 23:00:32 88° ENE 23:02:38 41° SSE
Cosmos 1500 Rocket 3.5 22:59:40 47° SSW 23:00:55 85° W 23:05:23 10° N
IRIDIUM 103 4.3 23:03:36 10° N 23:08:51 87° W 23:10:34 44° S
Cosmos 972 Rocket 3.9 23:07:27 44° S 23:09:07 71° ESE 23:14:08 10° NNE
COBE Rocket 3.7 23:09:07 52° SSE 23:10:15 89° E 23:14:58 10° NNW
Cosmos 2322 3.7 23:05:01 10° NNW 23:10:46 83° WSW 23:12:44 43° SSE
Cosmos 292 Rocket 4.3 23:06:22 10° NNW 23:10:55 47° WSW 23:12:09 38° SSW
NOSS 0 Rocket 4.5 23:06:47 10° NNW 23:12:53 52° NE 23:16:01 28° ESE
USA 234 3.3 23:10:02 23° ESE 23:14:27 81° NNE 23:21:02 10° NW
Cosmos 2297 Rocket 3.8 23:17:11 18° E 23:17:19 18° E 23:21:00 10° ENE
Lacrosse 5 4.0 23:21:58 13° E 23:21:58 13° E 23:22:56 10° E
Cosmos 1743 Rocket 4.1 23:19:29 38° SW 23:20:55 56° WNW 23:25:19 10° N
Cosmos 2237 Rocket 3.3 23:15:45 10° NNW 23:21:03 38° NE 23:24:02 23° ESE
Cosmos 2322 Rocket 3.9 23:17:12 10° NW 23:21:16 21° W 23:23:35 16° SW
Cosmos 1500 4.3 23:26:57 32° ENE 23:26:57 32° ENE 23:30:03 10° NNE
Cosmos 2227 Rocket 3.9 23:28:53 17° E 23:29:03 17° E 23:32:30 10° ENE
Sich 1 2.9 23:28:46 68° S 23:29:17 84° E 23:33:39 10° N
Cosmos 2285 Rocket 4.0 23:24:05 10° NNW 23:30:23 74° WSW 23:32:33 43° S
Okean 1 3.4 23:27:38 10° N 23:31:38 61° ENE 23:31:46 61° E
Meteor 1-25 Rocket 4.1 23:30:16 48° S 23:31:52 76° E 23:37:26 10° NNE
Cosmos 1633 Rocket 3.5 23:33:06 44° E 23:33:14 44° E 23:37:24 10° NNE
Cosmos 494 Rocket 3.9 23:33:16 55° SSE 23:34:07 64° ESE 23:39:12 10° NNE
Cosmos 2315 Rocket 4.3 23:28:22 10° NNW 23:34:35 60° W 23:37:07 36° SSW
Cosmos 1666 Rocket 3.6 23:37:07 58° ESE 23:37:23 60° E 23:41:47 10° NNE
Gblst 52 Del rocket 4.5 23:33:07 10° WNW 23:39:25 82° SSW 23:43:37 27° ESE
Cosmos 1048 Rocket 3.8 23:39:38 51° SSW 23:41:00 89° WNW 23:46:10 10° NNE
Cosmos 2228 Rocket 3.9 23:38:42 10° NNW 23:42:49 39° W 23:43:34 36° WSW
Cosmos 2219 Rocket 2.4 23:37:57 10° NW 23:43:25 55° WSW 23:44:40 45° SSW
Cosmos 489 Rocket 4.4 23:43:32 41° SSW 23:45:58 86° ESE 23:52:22 10° NNE
SL-16 R/B 4.0 23:43:23 10° N 23:48:07 26° NE 23:52:42 10° E
Meteor 1-19 Rocket 4.1 23:42:27 10° NNW 23:48:08 88° W 23:49:32 53° S
Cosmos 1602 3.8 23:52:56 67° W 23:52:57 67° W 23:56:49 10° N
Cosmos 1515 4.2 23:52:12 10° NNW 23:55:40 48° W 23:55:40 48° W
